Theta_e
340 342 343 342 341 341 341 340 339 339 338 337 336 336 336 336 338 337 337 337 337 338 338 338 337 336 336 336 335 336 335 335 335 335 333 333 333 333 333 332 332 332 332 332 332 331 329 327 326 324 321 316
338 339 341 340 340 341 340 340 340 339 338 338 338 339 338 338 339 338 337 338 338 337 337 338 338 336 335 335 335 334 335 335 334 334 334 333 332 333 332 332 332 332 332 332 332 332 328 325 325 324 321 313
335 335 337 338 338 338 338 339 339 339 337 338 337 335 334 334 334 332 332 334 335 335 335 334 335 336 336 334 334 333 333 333 333 332 332 332 332 332 332 332 332 333 333 331 332 331 327 324 322 322 318 313
333 333 332 334 335 335 336 336 336 335 333 332 330 329 328 327 326 325 325 325 326 329 331 331 328 333 335 334 334 333 333 333 332 331 331 332 332 332 332 333 332 330 332 332 331 330 326 322 321 314 313 312
331 332 331 331 331 332 332 333 333 332 327 325 324 323 322 323 323 324 325 325 325 324 323 323 326 332 334 333 333 332 332 331 332 331 331 331 331 331 334 325 322 321 326 327 329 327 321 318 313 312 312 311
332 331 332 331 330 329 329 328 328 328 327 326 322 319 321 322 322 323 324 325 327 326 326 325 323 325 331 332 332 332 332 332 331 332 331 331 331 332 331 324 314 313 317 322 324 321 317 312 311 310 311 311
332 333 333 333 332 329 326 328 326 325 325 321 320 320 320 321 321 321 323 324 324 325 321 323 321 323 326 327 326 327 330 332 332 332 332 332 332 332 324 318 314 313 312 312 317 315 313 311 311 311 311 311
332 332 333 333 333 331 328 325 323 323 319 319 318 318 318 320 320 321 322 323 324 323 321 320 319 319 320 320 320 319 318 319 321 325 327 326 326 321 315 312 312 312 311 311 309 310 310 310 310 311 310 311
330 330 331 331 331 331 330 326 323 321 318 317 318 316 316 318 319 320 321 321 321 319 319 318 318 317 318 317 315 314 314 312 312 314 312 312 311 310 311 312 314 311 313 312 311 311 310 310 311 312 313 311
329 329 329 329 329 330 329 328 325 322 318 316 316 316 315 318 319 319 320 318 317 317 317 317 316 316 316 315 313 313 312 311 311 311 310 309 311 313 312 314 317 315 315 318 314 311 311 310 313 314 311 310
328 328 328 328 328 328 328 328 325 323 320 318 317 316 315 319 318 319 319 317 315 315 315 316 315 315 315 314 313 314 312 310 311 312 311 310 310 313 314 315 318 320 321 319 315 315 315 313 315 316 313 311
327 327 326 326 325 326 326 325 325 324 322 319 318 317 317 317 318 318 318 317 314 314 313 314 315 314 314 314 313 314 313 311 310 312 311 310 310 314 314 316 317 316 317 318 315 316 316 315 312 314 313 311
326 325 324 324 324 325 324 325 325 323 321 319 318 317 318 316 316 315 317 316 315 311 313 313 313 314 314 312 313 313 314 312 312 312 311 312 313 313 314 313 316 314 316 317 313 313 315 316 314 315 312 308
325 324 323 322 323 324 321 323 323 321 321 321 319 318 318 318 319 317 317 315 312 312 313 313 312 313 313 312 313 312 314 314 311 312 310 311 311 311 311 313 313 314 316 315 315 314 312 313 316 313 310 308
325 323 323 322 322 321 321 322 321 321 321 321 320 320 318 318 318 318 317 316 315 313 314 314 314 314 314 313 314 314 315 311 313 312 313 315 314 313 312 313 310 313 315 316 317 314 311 311 316 313 311 310
324 323 323 322 322 321 321 321 320 320 320 320 320 319 318 318 318 317 317 317 315 315 314 314 314 314 313 315 315 314 315 313 313 314 315 313 312 311 311 309 311 311 313 316 318 315 314 312 316 315 313 311
324 324 323 322 322 321 320 320 319 319 319 320 320 319 319 318 318 316 318 317 316 315 316 316 314 313 314 315 316 314 314 313 311 311 311 313 310 311 312 313 313 312 310 312 313 310 310 312 316 317 315 313
324 323 323 323 323 321 320 319 319 318 319 319 319 319 318 319 318 317 317 317 316 316 316 316 315 315 315 315 314 314 314 314 312 313 312 315 311 314 312 313 312 312 310 309 309 311 313 316 316 315 314 313
323 322 322 322 322 322 321 320 319 319 318 318 318 319 319 319 319 318 318 317 317 316 315 315 315 315 316 316 315 313 314 315 314 314 315 312 314 310 311 310 308 311 308 312 314 314 314 314 312 311 313 311
323 322 321 321 320 321 321 320 319 319 319 318 318 318 319 319 319 318 318 317 317 317 316 316 316 316 316 315 314 315 314 314 316 314 315 313 315 312 310 309 311 308 308 308 312 315 316 314 312 310 308 307
322 321 321 321 321 321 320 320 320 319 319 318 318 318 319 319 319 318 319 318 317 317 316 316 316 316 316 315 315 314 315 315 316 316 316 313 313 313 310 308 309 310 308 311 311 313 315 314 311 309 307 305
322 321 320 320 320 319 320 320 320 319 319 319 318 318 318 319 319 318 319 318 318 318 318 317 316 316 316 315 315 316 315 316 316 314 315 315 310 312 311 309 311 310 307 308 309 310 312 310 309 307 305 304
321 321 320 319 319 319 319 320 319 319 319 320 319 319 319 319 319 318 318 319 318 318 318 316 316 317 317 316 316 316 315 315 314 314 312 314 310 307 310 312 312 312 309 307 308 309 309 308 305 302 301 300
321 320 319 319 317 317 318 319 319 319 320 320 319 320 319 319 319 318 318 319 319 319 318 317 317 317 317 315 315 315 314 314 313 313 311 310 311 309 309 309 309 309 308 305 306 307 308 304 303 302 300 298
320 319 318 318 319 319 319 319 320 319 318 319 320 320 320 319 319 318 318 317 318 319 318 318 317 317 317 316 316 316 316 316 315 314 314 313 309 311 309 310 308 308 308 309 306 306 303 306 306 304 301 298
321 321 321 320 320 320 320 319 318 319 319 319 319 319 319 319 319 319 319 317 318 319 319 319 318 317 318 317 316 316 317 315 312 313 311 311 310 311 312 312 310 310 311 305 304 304 303 305 307 305 300 297
321 322 322 322 320 321 319 320 320 320 319 319 319 319 319 319 320 320 320 319 318 319 320 320 319 318 318 317 317 315 314 314 313 313 313 313 315 311 310 310 308 310 312 307 300 301 305 303 304 306 303 301
323 322 323 322 322 321 321 319 318 319 318 319 318 318 319 319 320 321 321 321 320 319 321 321 321 320 319 318 317 317 316 314 314 313 313 313 313 314 313 312 312 310 310 305 308 305 306 304 304 301 304 299
322 321 319 319 316 315 316 315 316 317 318 319 318 319 318 319 319 321 321 322 321 319 320 321 322 321 320 319 318 317 317 316 316 315 315 314 314 314 315 312 310 311 309 307 313 308 299 298 299 301 297 297
321 320 320 318 318 316 316 317 316 316 317 318 318 319 320 319 319 319 321 322 322 321 320 321 322 322 321 320 318 317 318 318 316 315 314 315 315 314 314 316 313 313 308 308 310 309 305 306 303 300 295 298
320 320 320 320 319 319 318 318 318 319 319 319 319 319 318 319 319 319 319 321 322 322 321 321 321 322 322 321 320 317 318 317 317 316 316 315 315 316 315 314 313 313 313 309 310 308 304 301 294 299 300 299
Wind_Speed
10 11 11 11 11 10 12 12 11 11 10 10 10 9 8 6 6 7 7 8 7 8 8 9 8 9 8 8 8 7 7 7 6 5 4 4 5 6 6 7 8 9 9 9 9 10 8 7 5 3 4 3
12 11 11 10 9 8 8 10 10 9 8 7 8 8 8 7 7 6 4 5 5 5 5 6 6 7 7 7 7 7 6 6 5 4 3 3 4 5 5 6 7 8 8 8 8 7 8 6 5 3 4 3
9 12 11 10 9 8 7 7 8 8 10 10 9 9 9 9 9 8 9 8 7 6 6 6 6 6 5 7 6 5 5 5 4 3 2 3 3 3 4 5 5 5 6 7 7 7 6 5 5 5 3 3
6 10 11 10 9 9 8 9 10 10 10 10 9 9 9 9 7 6 6 7 6 7 6 6 6 6 5 6 5 5 5 4 4 2 2 1 2 2 4 4 5 5 5 6 6 6 6 4 5 3 2 2
6 8 11 8 10 10 10 10 10 10 10 9 8 8 7 7 4 4 3 3 3 4 4 5 5 4 4 4 4 3 4 3 2 1 0 1 1 2 3 5 6 6 6 6 6 6 5 4 3 3 2 2
5 5 7 6 5 5 7 8 9 8 6 6 5 6 5 3 3 3 3 3 3 2 3 4 6 6 6 6 4 1 1 1 0 2 2 3 3 4 6 7 3 4 5 6 6 5 5 4 3 2 2 2
5 6 6 6 6 5 6 6 5 5 6 5 5 4 3 3 2 3 3 3 3 2 4 3 5 6 6 5 6 8 6 5 4 4 4 5 6 6 6 3 2 3 3 3 5 5 4 3 2 2 2 3
5 5 6 6 6 6 5 4 4 4 3 5 4 4 4 4 3 3 2 4 5 4 2 2 3 4 4 3 4 5 4 4 4 6 6 6 6 4 3 3 3 3 3 3 2 2 2 2 2 1 2 3
6 5 5 5 6 6 5 4 3 3 2 3 4 3 3 3 4 3 2 3 2 2 2 1 1 0 0 1 1 2 2 2 3 2 2 3 3 3 3 3 4 3 4 3 2 1 2 2 3 2 4 2
6 7 6 6 6 6 5 6 5 4 2 2 3 2 3 3 3 2 2 2 2 2 2 3 2 2 1 1 2 1 2 2 2 2 1 2 3 4 2 2 4 0 1 3 3 2 2 2 3 4 3 3
7 7 7 7 7 7 6 6 6 5 4 3 3 3 3 4 3 2 3 2 2 3 2 3 3 3 2 3 3 3 2 2 2 2 2 1 3 4 4 3 4 2 2 3 3 3 3 1 3 4 3 2
7 6 6 7 7 7 8 7 6 6 5 5 5 3 4 4 4 4 4 3 3 3 3 4 4 2 3 3 3 3 2 3 4 3 2 2 3 4 4 4 3 2 3 3 3 3 3 3 3 4 4 2
6 6 6 6 7 7 7 8 7 7 6 6 5 5 5 4 5 4 4 5 5 3 5 4 3 3 4 3 4 3 3 3 5 3 3 4 4 4 3 3 1 2 3 1 1 2 3 3 3 5 4 3
7 7 7 6 7 7 7 7 7 6 7 7 7 6 6 6 6 6 6 6 5 5 6 5 4 4 4 4 4 3 5 5 4 6 3 3 3 3 3 3 2 0 2 2 1 1 1 3 3 3 4 3
8 8 8 8 7 7 7 7 7 7 7 7 7 7 8 7 7 7 6 6 6 5 6 5 5 5 4 4 5 4 5 3 5 5 4 5 5 4 4 4 1 0 1 1 3 1 0 1 3 4 4 3
9 9 9 8 7 8 8 7 7 7 7 7 7 7 8 7 7 7 7 7 6 6 6 5 5 5 5 6 5 5 5 5 5 5 5 4 3 4 1 2 1 0 0 1 1 1 1 3 4 5 5 4
9 8 8 9 9 7 8 7 7 8 8 8 7 7 8 8 8 8 7 7 7 7 6 6 6 5 6 6 5 5 5 4 4 3 3 3 2 2 0 0 0 1 1 1 0 0 2 3 4 4 5 5
8 9 9 8 8 8 8 7 7 8 7 8 7 7 7 7 8 8 7 7 7 6 6 6 6 6 6 6 5 5 5 5 4 5 3 5 1 3 2 3 1 1 2 1 0 1 2 3 3 4 4 5
9 8 8 8 8 9 9 8 8 8 7 7 7 6 6 7 7 8 8 8 7 7 6 6 6 6 7 6 5 6 5 5 4 4 5 4 4 2 0 1 1 1 2 1 2 3 3 4 2 3 3 3
9 9 8 7 7 7 9 8 9 8 8 7 7 7 7 8 8 8 8 8 7 7 7 7 7 7 6 5 5 5 4 3 5 5 4 4 4 3 2 0 1 0 2 2 2 2 3 3 4 3 3 4
8 7 8 7 8 8 7 8 8 7 6 6 7 7 8 9 9 9 8 8 7 7 7 7 6 6 6 5 5 5 5 5 5 5 5 4 4 3 4 3 2 1 2 4 3 2 3 4 5 4 4 5
9 8 7 6 6 6 7 8 7 6 6 7 8 8 9 8 8 8 8 7 7 7 6 5 6 6 6 5 5 5 5 6 5 5 5 6 3 3 3 4 4 4 2 2 3 3 4 3 3 5 6 5
8 7 6 5 5 5 6 6 6 6 7 8 7 7 8 7 7 7 7 7 7 7 6 5 5 6 6 5 5 5 5 5 5 5 4 5 3 1 3 5 6 6 4 3 1 2 1 0 0 1 1 2
7 6 7 7 5 5 6 6 7 7 8 6 7 8 8 7 7 6 7 7 6 6 6 5 6 7 6 5 5 6 6 6 6 6 5 5 4 4 2 0 3 3 5 4 4 2 2 2 1 1 1 1
9 9 7 6 9 10 7 8 7 7 6 7 8 8 7 6 6 6 6 6 6 7 6 6 6 6 6 6 6 6 7 7 7 6 6 5 4 5 4 3 1 3 3 5 2 3 2 1 2 0 1 1
10 10 10 10 10 8 8 7 8 8 7 8 7 7 7 6 6 7 6 7 7 8 8 7 7 7 8 7 7 7 6 5 6 5 4 4 3 1 5 5 5 5 5 0 3 3 1 1 1 0 1 1
11 9 9 9 7 9 7 6 7 7 6 6 7 7 6 6 7 7 8 8 8 8 9 9 8 9 8 7 7 6 6 5 6 6 7 7 7 3 1 2 2 5 7 5 3 2 3 2 2 3 1 1
10 10 9 9 7 7 9 7 7 7 6 6 7 8 8 8 8 8 9 9 9 9 9 10 10 8 8 8 7 8 8 7 8 7 6 6 6 6 5 3 5 5 6 5 7 1 4 2 2 4 7 4
9 7 5 4 2 2 3 1 5 5 8 9 8 8 9 10 8 10 10 9 10 9 10 9 9 8 8 8 8 7 8 8 10 9 8 9 8 8 8 7 4 5 6 5 7 7 3 2 1 4 1 2
10 9 10 8 8 9 8 9 9 12 13 10 11 12 7 6 9 10 10 9 10 10 9 10 10 9 9 9 8 8 9 8 6 7 8 9 9 9 7 8 7 6 4 6 7 5 2 4 5 3 2 3
10 10 10 13 13 12 12 12 11 9 7 8 8 6 7 8 8 10 11 11 10 10 10 10 9 10 10 10 9 8 8 8 9 8 9 7 8 9 8 6 8 9 6 3 6 5 2 1 1 4 6 6
Wind_Direction
131 132 132 136 141 145 144 152 142 140 138 142 148 151 142 118 113 133 136 137 136 137 136 133 134 131 127 124 123 117 114 110 104 99 93 77 50 39 33 30 30 28 25 22 19 33 32 36 62 91 89 64
139 137 137 139 139 147 151 148 138 139 140 127 107 99 95 92 88 83 104 109 99 91 91 97 112 128 132 132 119 111 107 106 107 104 93 64 50 40 32 28 28 23 15 11 6 27 24 29 61 80 66 54
142 138 139 138 138 140 140 128 124 114 107 111 109 97 94 91 84 66 52 53 54 69 69 66 73 81 92 107 109 116 116 117 120 117 98 72 51 39 32 26 24 9 359 353 357 3 27 18 72 71 53 37
142 140 140 141 139 135 126 122 120 119 114 110 108 104 108 109 105 86 68 59 55 45 62 77 84 84 102 125 124 126 126 127 130 132 108 76 51 26 21 13 9 355 340 341 347 352 23 22 83 75 53 46
143 147 140 141 140 137 133 132 130 121 114 111 114 116 113 113 107 108 90 70 64 54 49 49 58 84 107 123 121 126 131 136 137 146 86 13 346 352 24 11 347 347 344 349 349 11 30 51 74 83 63 37
144 146 138 135 134 132 136 135 131 129 132 130 129 124 131 128 126 129 127 123 114 73 81 59 50 46 48 52 31 34 123 114 344 318 309 321 334 343 7 353 353 353 347 357 2 19 43 62 70 56 53 38
149 148 144 141 137 129 132 140 139 142 141 142 146 153 155 146 139 144 148 148 149 138 65 64 47 39 49 34 359 345 349 342 332 320 310 325 338 8 356 351 353 343 345 342 3 23 43 47 76 89 49 49
154 151 151 150 144 143 137 137 145 146 156 147 157 159 155 148 142 144 135 154 160 142 141 77 43 36 24 356 332 327 327 324 325 331 326 333 346 357 354 338 332 353 334 322 340 15 50 54 78 76 72 71
157 150 147 151 153 146 147 136 150 157 166 155 158 160 145 137 134 137 141 150 148 165 179 179 164 182 238 309 291 304 281 307 308 325 323 337 345 341 340 330 310 345 330 300 316 333 54 91 125 114 80 60
158 157 159 161 161 156 152 154 163 166 155 144 154 156 125 114 126 140 150 153 184 194 199 204 204 208 206 225 247 235 255 257 269 279 342 332 327 309 302 269 269 166 222 285 296 280 105 137 130 97 69 67
160 168 165 165 168 161 168 166 153 172 165 165 167 162 152 149 160 167 173 190 212 220 208 214 210 209 211 214 229 229 221 246 235 244 288 313 286 282 294 273 249 213 214 228 242 261 107 112 122 108 98 76
172 172 168 174 169 177 172 163 167 177 177 160 173 179 187 179 172 173 182 204 213 222 211 215 211 209 210 215 226 222 218 254 268 256 240 259 280 275 272 262 243 233 241 215 198 221 106 113 123 109 104 84
176 176 176 170 174 180 176 181 183 180 175 166 172 186 194 183 183 192 192 195 214 194 219 206 199 203 216 214 230 203 234 226 256 264 243 236 249 264 263 279 282 227 238 162 107 245 111 143 165 125 119 110
179 180 181 182 182 181 178 188 188 182 183 180 171 186 195 197 196 194 193 203 202 189 222 209 203 210 226 221 226 199 232 221 227 243 245 251 253 246 243 264 263 215 236 160 121 339 106 171 147 106 128 131
185 179 187 185 187 180 185 188 185 189 190 191 187 186 189 196 198 198 200 198 196 204 217 210 201 220 223 238 236 212 233 214 215 229 225 222 219 211 221 237 241 228 245 165 193 92 202 129 129 122 123 117
187 189 189 187 187 189 190 185 188 191 195 202 198 190 188 191 194 195 199 195 197 201 209 213 208 219 213 230 236 215 227 223 221 218 231 226 211 219 177 205 140 353 89 227 183 106 132 151 145 143 150 142
192 188 189 189 193 190 188 190 191 194 199 203 203 198 193 192 191 192 193 197 197 201 208 209 211 218 219 226 228 219 220 216 225 241 250 249 237 271 189 209 42 41 34 315 318 243 192 142 143 147 148 150
191 194 194 192 190 188 188 192 194 202 201 202 204 201 201 196 195 192 198 190 201 200 207 213 214 216 222 224 222 219 208 208 205 223 221 239 229 261 261 252 307 17 323 21 341 126 175 147 155 145 147 154
199 195 196 195 192 190 189 192 196 199 201 199 200 195 202 202 200 200 197 197 192 200 202 211 219 219 223 217 211 209 211 206 203 204 215 207 217 253 17 340 6 215 230 151 189 158 147 132 121 118 132 129
199 195 195 198 200 197 196 196 199 198 200 196 190 195 200 204 207 204 203 200 196 197 202 208 216 219 220 218 202 213 214 208 215 210 218 216 199 184 257 61 276 122 194 158 180 174 135 141 133 117 120 142
200 194 196 196 195 199 197 202 205 202 197 194 197 201 206 204 205 205 205 204 200 200 203 209 215 223 217 209 201 209 212 206 220 206 214 221 218 177 199 182 197 255 203 139 181 163 155 175 150 161 168 162
198 199 199 199 199 199 202 207 205 199 192 203 205 203 212 209 206 207 206 204 202 207 210 206 209 223 219 203 203 212 209 218 215 214 204 223 219 189 151 184 181 204 209 158 153 164 186 226 194 169 169 163
197 194 199 196 196 202 214 218 214 201 204 211 207 210 213 207 209 209 205 204 203 206 208 208 212 218 220 197 203 209 213 225 221 215 211 214 226 214 196 187 191 183 159 102 76 138 152 10 42 57 81 143
192 187 193 197 200 217 219 215 214 215 217 211 211 217 212 210 209 203 203 204 202 204 205 208 213 218 217 201 195 205 211 221 213 209 207 225 194 186 196 3 165 130 121 66 57 25 29 27 52 64 90 196
190 193 198 207 207 211 205 213 218 222 222 221 221 218 215 210 207 206 202 203 195 203 206 209 212 213 220 203 199 204 213 212 209 204 199 198 182 174 182 227 149 212 124 119 37 21 14 10 22 59 122 207
198 200 198 193 203 203 203 204 210 221 218 223 228 225 214 209 208 208 206 202 198 203 203 206 208 209 213 202 206 210 212 210 203 197 198 171 170 213 185 203 183 192 129 47 170 149 288 335 352 334 134 177
205 200 200 196 197 193 203 208 207 213 211 210 225 226 215 207 206 207 211 207 202 203 205 206 205 211 210 205 199 202 213 207 207 199 198 186 184 190 267 264 233 186 192 179 147 119 104 240 234 276 279 238
205 200 199 204 195 195 194 195 194 201 203 208 213 226 215 211 206 206 212 210 207 209 210 207 209 209 208 210 199 201 204 204 211 202 200 194 200 170 185 206 223 206 207 142 134 230 206 204 161 264 235 204
196 185 189 185 162 153 204 237 190 195 220 212 212 218 217 216 204 210 214 213 212 210 214 211 212 210 211 210 206 201 208 207 208 202 197 191 191 192 191 203 215 222 203 209 200 156 96 17 259 224 264 162
190 192 187 179 190 201 203 214 204 211 214 207 211 217 214 211 208 213 216 216 215 213 213 214 212 211 210 211 207 203 211 212 202 202 199 197 194 201 203 191 199 216 220 211 224 213 168 158 177 174 236 112
190 195 198 199 202 204 207 215 222 221 221 217 220 212 210 211 210 213 215 218 216 214 212 215 213 212 214 214 211 204 207 211 207 204 203 193 198 203 197 186 204 208 204 209 249 238 238 47 58 150 132 211